THOR ABLESTAR DEB, 1504

Orbit data source: Space-Track

THOR ABLESTAR DEB, 1504 is space debris in LEO originally from a launch on Fri, 13 Aug 1965 UTC launched from the Air Force Western Test Range (AFWTR). Debris objects in space refer to the collection of defunct objects orbiting the Earth. Examples of debris include non-operational satellites, rocket bodies, and fragments generated from explosions, collisions, or faulty payload assembly.

Loading next visibility...
THOR ABLESTAR DEB details
Identifier
1504, 1965-065A
Orbit
LEO
Last TLE update21 hours ago
Origin
Flag of USNRL (US)
ManufacturerNRL
MissionSpacecraft
Bus & MotorUnknown
MassUnknown
Launch date (UTC)
1965-08-13 (59 years ago)
Launch vehicleUnknown
Launch site
Air Force Western Test Range (AFWTR)
Object type
Payload
Rocket body
Debris
Shape & HBRUnknown
Radar Cross SectionSmall (<0.1 m²)

Expand to show TLE details & history

TLE from 21 hours ago
0 THOR ABLESTAR DEB
1 01504U 65065A   24355.73588605  .00000313  00000-0  55038-3 0  9994
2 01504  89.9339 244.4437 0066526 323.5925  96.1308 13.40137895894914
Epoch: 2024-12-20T17:39Z
Definitive object data (Epoch: 2024-12-20T17:39:40.554Z)
Latitude60.56904°
Longitude-110.15584°
Altitude1,124.817 km
Speed7.293 km/s
True Right ascension16h 18m 14s
True Declination60° 25' 44"
Sunlit
Object was in daylight at TLE epoch
Visualization TLE readout
Latitude19.72226°
Longitude-110.25464°
Altitude1,085.121 km
Speed7.324 km/s
Apparent Right ascension19h 09m 14s
Apparent Declination-21° 00' 25"
Sunlit
Object is in daylight
Visualization observer readout
Local Sidereal Time13:59:55
Azimuth114.044° SE
Elevation-4.184°
Doppler factor1
Orbital elements
Apogee altitude1,155.617 km
Perigee altitude1,056.042 km
Semi-major axis7,483.967 km
Eccentricity0.0066526
Inclination89.9339°
RAAN244.4437°
Arg. of periapsis323.5925°
True anomaly96.88808°
Mean anomaly96.1308°
Eccentric anomaly96.50951°
Mean motion3.35232 °/min
BSTAR0.00055038
Orbital period107.39 mins
Loading maneuver chart data...
Loading historical data...
Loading historical data...
Loading historical data...
Loading historical data...
Loading historical data...
Loading historical data...
Loading historical data...

THOR ABLESTAR DEB Visibility forecast

Observer location: undefined°, undefined

Span
Click to sort rows by Start time (UTC) header in descending order
Start Az.
Max El. time (UTC)
Max El. Az.
Max El.
End time (UTC)
End Az.
12 mins2024-12-21 16:45:42.893Z159.035° S2024-12-21 16:51:42.893Z68.252° E40.864°2024-12-21 16:57:42.893Z5.734° NNE
8 mins2024-12-21 18:35:42.893Z244.492° WSW2024-12-21 18:38:42.893Z276.364° WNW20.09°2024-12-21 18:43:42.893Z326.438° NNW
10 mins2024-12-22 04:01:42.893Z30.996° NE2024-12-22 04:06:42.893Z88.415° E26.656°2024-12-22 04:11:42.893Z138.54° SSE
11 mins2024-12-22 05:48:42.893Z344.408° N2024-12-22 05:53:42.893Z279.637° WNW36.034°2024-12-22 05:59:42.893Z211.189° SW
|